Theta_e
267 267 267 267 268 268 268 268 267 267 266 266 265 265 265 265 265 265 265 264 265 264 264 264 264 264 264 264 264 264 264 264 265 265 264 264 265 265 265 265 265 265 266 266 268 267 267 267 267 268 269 269 270 271 271 272 273 274 275 275 275 275 275 273 271 271 274 277 276 276 278 279 278 279 278 279 279 280 280 280 280 280 280 280 280
267 267 267 267 267 267 268 268 267 266 265 265 265 265 265 265 265 265 264 264 265 264 264 264 264 263 263 263 263 264 264 264 264 264 264 263 264 264 264 264 264 265 265 265 266 266 266 266 266 266 267 267 268 269 270 271 271 272 273 273 273 273 275 273 272 272 270 274 274 277 277 278 276 279 278 278 278 279 279 279 280 280 279 279 279
267 267 266 266 266 266 267 267 266 265 265 265 264 264 264 264 264 264 263 263 264 264 263 263 263 263 263 262 263 263 263 263 263 263 263 263 263 263 264 264 264 264 264 264 265 265 264 264 265 266 266 266 267 267 268 269 270 270 270 272 272 273 273 273 272 270 270 271 274 274 275 276 276 277 278 278 278 278 278 278 278 279 279 280 279
266 266 266 265 266 266 266 266 266 265 264 264 264 264 264 264 264 263 263 263 263 263 263 263 263 262 262 262 262 262 262 263 263 263 262 262 262 262 263 263 263 263 263 263 263 263 263 263 264 265 265 265 265 266 267 268 268 269 270 271 271 271 272 273 273 271 271 270 272 273 274 274 275 277 278 278 278 277 277 277 278 278 278 278 278
266 265 265 265 265 265 265 266 265 264 264 264 263 263 263 263 263 263 263 262 263 263 263 263 262 262 261 261 261 262 262 262 262 262 262 262 262 262 262 262 263 262 262 263 263 263 263 263 263 264 264 264 265 266 266 267 267 268 268 269 270 271 271 272 272 272 271 270 271 273 274 274 275 276 277 276 276 276 277 276 276 277 277 277 278
265 265 265 264 264 264 265 265 264 264 264 263 263 263 263 263 263 263 263 262 262 262 262 262 261 261 261 261 261 261 262 262 261 261 262 262 262 262 261 261 262 262 262 262 263 263 263 263 264 264 264 264 264 265 266 266 267 267 268 268 269 271 271 271 271 271 271 270 271 271 273 272 273 275 276 277 275 275 275 275 276 276 276 275 276
265 265 264 264 264 264 264 264 264 264 263 263 263 262 262 262 262 262 262 262 262 261 261 261 261 261 261 261 261 261 260 261 261 261 261 261 261 260 260 261 261 261 262 263 263 263 264 264 264 265 264 265 265 265 266 266 266 267 267 268 268 268 268 269 271 270 270 270 270 271 271 273 273 273 276 277 276 275 274 274 273 275 275 275 274
264 264 264 263 263 263 264 264 264 263 263 263 262 262 262 261 261 262 261 261 260 261 260 260 260 260 260 260 260 260 260 260 260 260 260 260 260 259 260 260 260 261 262 263 263 264 264 265 265 265 265 265 265 266 266 266 267 267 268 268 269 268 268 269 269 269 269 269 269 269 270 271 272 274 275 276 274 274 274 273 272 273 274 275 274
264 264 263 263 263 263 263 263 263 263 263 262 261 261 261 261 261 261 260 260 260 260 260 259 258 258 259 259 259 259 259 259 259 259 258 259 259 259 260 260 261 261 262 263 264 264 264 265 265 265 266 267 268 268 269 269 267 267 268 268 268 268 268 268 268 269 269 269 269 270 270 270 271 272 272 272 272 272 274 274 272 273 274 274 275
263 263 262 262 263 263 263 263 263 262 262 261 260 260 260 260 259 259 259 259 258 259 258 258 258 257 257 258 258 258 257 258 259 262 264 261 261 262 263 263 263 263 263 264 265 265 265 265 266 267 267 268 269 269 270 270 271 270 269 269 268 268 268 268 268 268 268 268 268 269 268 269 270 272 272 273 274 274 273 273 271 272 273 273 273
263 262 262 262 262 262 262 262 262 261 261 260 260 259 259 259 258 258 258 258 257 257 257 257 257 257 257 256 256 257 257 257 261 265 266 268 265 264 264 264 264 265 265 265 265 266 267 267 268 269 269 269 269 270 270 270 271 271 271 271 271 270 269 268 268 269 268 268 269 269 269 269 270 272 273 273 274 273 272 272 272 272 271 270 269
262 262 262 262 262 261 261 261 260 260 260 259 259 259 258 257 257 257 257 257 257 257 256 256 256 256 256 256 256 256 256 260 264 265 267 266 267 264 264 264 264 264 265 265 265 266 266 267 267 268 268 268 268 268 269 270 270 271 271 271 272 273 274 271 269 269 269 268 268 268 269 269 270 272 272 272 272 273 273 272 272 271 271 270 270
262 261 261 261 261 261 261 260 260 259 258 258 258 258 257 257 256 256 255 256 256 256 256 256 255 256 255 255 255 256 256 260 263 265 267 266 265 264 264 264 264 265 265 265 266 266 266 266 267 267 268 269 269 268 268 268 269 270 270 270 271 272 273 274 274 271 271 270 269 269 269 270 270 271 273 273 274 272 272 272 272 272 271 271 271
261 261 261 261 260 260 260 259 259 258 258 258 257 257 256 255 256 256 256 256 255 255 255 255 255 255 255 255 255 255 256 259 263 265 266 264 266 265 264 264 265 265 265 265 266 266 266 266 266 267 268 268 268 268 267 267 267 267 268 268 269 270 272 273 273 274 274 272 271 270 271 272 271 273 274 274 273 271 271 271 272 271 271 270 272
260 260 260 260 260 259 259 258 258 258 258 257 256 256 255 255 255 255 255 255 255 254 255 254 255 255 255 255 255 255 255 261 264 266 263 265 265 265 264 265 265 265 266 266 266 266 267 267 267 267 267 268 268 268 267 267 267 267 267 267 268 269 270 270 271 272 272 272 272 273 273 274 273 274 274 274 274 273 273 272 272 272 272 273 273
260 260 260 260 259 259 258 258 257 257 257 256 255 255 255 254 254 255 255 255 255 255 255 255 254 254 255 255 255 254 255 262 264 266 264 266 264 264 264 264 265 265 266 266 266 267 268 268 268 268 268 268 269 271 271 269 267 267 267 267 268 269 270 272 274 275 274 273 273 273 274 274 276 275 275 274 274 274 274 274 273 272 271 270 269
260 259 259 259 259 258 258 257 256 256 256 255 254 254 254 254 254 255 254 254 254 254 254 254 255 255 254 254 254 255 255 259 263 265 262 266 265 263 264 264 265 265 266 266 267 268 268 268 268 268 268 268 270 272 272 271 267 267 267 267 267 268 269 271 274 276 276 277 277 277 277 277 278 278 278 277 275 275 273 271 270 270 269 267 268
259 259 259 259 258 257 257 256 256 256 255 254 254 254 254 254 254 254 254 253 253 254 254 255 255 255 255 254 255 255 255 259 263 264 261 263 266 263 264 264 264 265 265 266 267 267 268 269 270 269 269 269 271 272 273 271 268 267 267 267 266 267 268 270 272 273 276 276 277 277 277 278 278 277 278 278 278 276 272 269 270 271 268 268 267
258 258 258 258 257 257 257 257 256 255 254 254 254 253 253 254 254 254 254 254 254 254 255 254 254 255 255 255 256 256 255 257 262 264 265 262 263 263 264 264 263 264 265 265 267 267 268 269 270 270 270 271 273 273 273 271 268 268 267 267 266 266 268 270 270 271 271 271 271 273 273 275 275 275 276 277 277 276 273 272 272 271 269 269 268
259 258 258 257 257 257 257 256 256 255 254 254 254 253 254 254 254 254 254 254 254 254 254 254 253 254 255 255 255 256 255 256 258 264 264 264 266 264 264 263 263 263 264 265 265 266 267 268 269 271 272 273 273 273 273 273 270 269 269 268 267 267 269 270 271 271 271 270 270 271 272 273 274 274 274 275 275 275 274 273 273 272 270 269 269
258 258 258 257 257 257 257 256 255 254 254 254 253 253 253 253 253 253 253 253 253 253 253 253 253 253 255 255 256 256 257 257 258 264 264 264 265 263 263 263 263 263 264 265 265 265 266 267 268 269 271 272 273 273 273 274 274 271 270 268 269 270 272 270 271 272 271 270 270 270 271 271 272 272 272 272 273 273 274 274 273 273 272 270 269
258 257 257 257 257 256 256 255 255 254 254 253 253 252 253 253 253 253 253 253 252 252 252 252 253 253 254 255 256 257 258 258 258 261 264 263 262 266 263 263 264 264 264 264 264 265 266 267 267 268 270 272 273 274 274 274 274 271 270 273 273 273 271 271 272 271 271 271 270 270 270 270 270 271 271 271 272 273 273 273 274 273 273 273 272
257 257 257 256 255 255 255 255 254 254 253 253 252 252 252 252 252 253 252 252 251 251 251 252 253 253 254 256 257 257 257 258 260 259 262 264 263 264 265 265 267 265 264 263 264 264 266 266 267 268 271 272 273 272 273 274 273 272 274 274 274 273 272 272 272 271 270 270 270 269 269 270 270 270 270 270 271 271 272 273 273 273 273 273 274
257 256 255 255 255 254 254 254 254 254 253 253 252 252 252 252 252 252 252 252 252 252 252 253 253 253 254 255 256 257 258 258 260 260 260 263 263 263 265 267 266 264 264 264 264 265 265 265 266 270 271 272 273 273 272 272 271 273 274 273 273 273 271 271 271 270 270 269 269 269 269 270 270 270 270 271 271 271 271 272 272 273 273 273 273
256 255 254 254 254 254 254 254 253 253 253 253 252 252 252 252 251 252 252 252 252 252 252 253 253 254 254 254 255 256 258 258 258 259 260 260 263 264 264 266 265 265 263 264 265 264 266 268 269 269 270 270 271 271 271 271 272 272 272 272 272 271 271 271 270 270 269 268 269 269 269 270 270 271 271 271 271 271 271 271 271 272 273 273 273
254 254 253 253 254 254 253 253 253 253 253 253 253 253 252 252 251 252 252 252 252 252 252 253 253 254 254 255 255 256 257 257 258 258 259 260 260 262 264 263 264 264 265 264 265 266 267 267 267 266 266 266 266 267 268 269 271 271 272 272 271 271 270 270 270 269 268 269 269 269 269 270 270 271 271 271 270 270 270 270 270 270 271 271 271
253 253 253 253 254 253 253 253 253 253 253 253 253 253 253 252 252 251 252 252 251 252 252 253 253 254 254 254 255 256 256 257 257 257 258 258 259 259 260 262 264 264 263 263 263 262 263 263 263 264 264 265 265 267 268 270 270 270 271 271 271 271 271 271 270 270 269 269 269 270 270 271 271 271 270 269 269 270 270 270 269 269 270 270 270
253 253 253 253 253 253 253 252 252 253 253 253 252 252 252 252 251 251 251 251 251 251 252 253 253 254 254 254 255 255 255 256 256 256 257 257 258 259 260 261 261 261 261 261 261 261 261 262 262 262 262 261 262 263 263 265 266 267 268 269 270 271 271 272 272 271 270 271 271 271 271 271 270 269 270 269 269 269 270 269 269 269 270 270 269
253 253 253 253 253 253 253 253 253 253 252 252 252 252 252 251 251 251 252 253 253 253 253 254 254 255 255 255 254 254 254 254 255 258 257 258 258 259 260 260 261 261 261 261 260 260 260 260 259 259 259 259 260 260 261 262 263 264 264 265 267 269 270 270 269 269 270 271 270 270 269 270 269 270 269 269 269 269 270 269 270 269 270 270 269
252 252 253 253 253 254 253 253 253 253 252 252 252 252 253 254 254 253 253 256 256 258 257 255 255 256 255 256 256 254 254 255 258 256 255 258 259 261 262 262 262 261 261 260 260 258 258 258 258 257 257 257 258 258 258 259 260 261 262 264 264 265 267 269 270 270 271 271 271 270 270 270 269 269 269 269 269 269 270 270 269 270 269 269 268
252 252 253 253 253 253 253 253 253 253 252 252 251 251 251 252 256 258 256 255 256 258 254 255 256 258 256 255 256 257 257 257 255 256 257 254 258 261 261 261 261 261 260 258 257 256 256 256 256 256 256 256 256 256 257 258 258 259 260 261 262 263 264 265 268 270 270 270 270 270 270 270 269 269 269 269 269 269 269 270 270 269 269 269 269
251 252 253 253 253 252 253 252 252 252 252 252 251 251 250 250 251 254 257 256 257 256 253 254 256 258 256 256 256 255 256 257 257 256 254 258 259 260 260 260 260 260 259 258 255 255 255 255 255 255 255 255 255 256 256 257 257 258 258 259 260 261 262 262 263 264 268 269 269 270 269 270 270 270 270 270 269 269 269 268 269 269 269 270 269
251 251 252 252 252 252 252 252 252 252 251 251 250 250 250 250 249 250 252 256 257 256 258 257 255 257 256 257 257 255 255 256 256 258 257 259 259 259 259 260 258 260 257 255 254 254 254 254 254 254 254 254 254 255 255 256 256 257 257 258 258 259 261 262 262 264 266 269 269 269 270 270 270 270 270 270 269 268 269 268 268 269 269 269 269
251 251 252 252 251 252 252 252 252 252 252 251 251 250 250 250 250 249 249 249 250 252 254 254 255 254 254 255 257 258 258 255 257 257 258 255 256 257 258 256 258 258 256 253 253 253 253 253 253 253 254 254 254 255 255 255 256 256 257 258 258 259 260 261 261 261 262 264 267 269 269 270 270 270 269 269 270 269 269 268 268 268 268 269 269
251 251 250 251 252 252 252 252 252 252 251 251 251 250 250 250 250 249 249 248 248 248 249 250 252 253 251 252 252 253 254 254 255 256 254 255 258 256 256 253 252 252 253 253 253 253 252 252 252 253 253 253 254 254 254 254 255 255 256 257 257 258 259 260 260 260 260 261 262 264 266 268 270 270 270 269 269 269 268 268 268 268 268 269 270
252 252 252 252 252 252 252 252 252 252 251 251 251 251 251 250 250 249 249 249 249 248 249 249 250 251 252 252 252 252 253 253 254 256 252 254 255 255 251 251 250 251 251 252 252 252 253 253 252 253 253 253 254 254 254 254 254 255 256 256 257 257 258 258 258 258 259 260 260 261 262 263 265 268 270 270 269 269 269 268 269 269 269 270 270
252 252 253 253 253 252 252 252 252 252 251 251 251 251 251 250 250 250 249 249 248 249 248 249 249 249 250 250 251 251 252 253 256 257 256 256 257 253 251 250 250 250 250 251 251 251 251 252 253 253 253 253 253 253 254 254 254 254 255 256 256 257 257 257 257 257 258 258 259 259 260 261 262 263 266 269 269 269 269 269 269 269 270 270 270
252 252 252 252 252 252 252 252 252 251 251 251 251 251 250 250 249 249 249 248 248 248 248 248 249 248 247 248 250 250 250 252 253 252 251 251 250 250 250 250 250 250 249 250 250 251 251 252 252 252 252 253 253 253 253 254 254 254 254 255 256 256 257 256 256 256 257 258 258 259 259 260 261 262 263 267 269 269 269 269 270 270 270 270 270
253 252 251 251 251 252 252 252 251 251 251 251 251 250 249 249 249 249 249 248 248 248 248 248 248 248 248 249 248 249 250 249 249 248 248 248 249 250 250 250 250 249 250 250 250 250 251 251 252 252 252 253 253 253 253 253 254 254 254 254 255 255 255 255 255 255 256 256 257 258 259 259 260 261 262 263 263 265 268 269 269 270 269 269 270
253 253 252 251 252 252 252 251 251 251 251 250 250 250 249 249 249 248 248 248 248 248 248 247 247 248 248 248 248 249 248 248 248 248 247 248 248 248 249 249 249 249 249 249 249 250 250 251 251 252 252 252 252 252 253 253 253 253 253 254 254 254 254 254 254 254 254 255 256 257 257 258 259 260 261 261 262 262 263 264 266 268 270 270 270
253 253 252 252 251 251 251 251 251 251 251 250 250 250 249 249 249 248 248 248 248 248 247 247 247 248 248 248 249 249 248 247 247 247 247 247 248 248 248 249 249 249 249 249 249 250 250 250 251 251 252 252 252 252 252 253 253 253 253 253 253 253 253 253 253 253 253 254 255 256 256 257 259 259 259 260 262 262 262 263 264 265 266 267 268
253 252 252 252 252 252 251 251 251 250 250 250 250 249 249 249 249 249 248 248 248 247 247 247 248 248 248 249 249 249 248 247 247 247 247 247 247 248 248 248 249 249 249 249 249 249 250 250 250 251 251 251 251 252 252 252 252 252 252 252 252 252 252 252 253 252 252 253 254 255 255 257 258 258 259 260 260 261 262 262 262 263 264 265 266
252 252 252 252 252 251 251 251 251 250 250 250 249 249 249 249 248 248 248 248 248 247 247 247 247 248 248 248 248 247 247 247 247 247 247 247 247 248 248 248 249 249 249 249 250 250 250 250 250 251 251 251 251 251 251 251 252 252 252 252 252 252 252 252 252 252 252 252 253 254 254 256 257 258 258 259 259 260 261 261 262 263 263 264 264
252 252 252 252 251 251 251 251 250 250 250 249 249 249 249 249 248 248 248 247 247 247 247 247 247 247 247 248 247 247 247 247 247 247 246 247 247 247 247 248 248 248 249 249 250 250 250 250 250 250 251 251 251 251 252 252 252 252 252 251 251 251 252 252 251 251 252 252 252 253 254 255 256 257 257 258 258 259 260 260 260 261 262 263 263
252 252 252 251 251 251 251 251 250 250 249 249 249 249 249 248 248 248 248 247 247 247 247 247 247 247 247 247 247 246 246 246 246 246 246 246 247 247 247 248 248 248 248 249 249 249 250 250 250 250 250 250 251 251 251 252 252 252 252 252 251 251 251 252 252 252 252 252 252 252 253 254 255 256 257 257 258 258 259 259 260 259 260 261 261
252 252 251 251 250 250 250 250 250 250 249 249 248 248 248 248 248 248 248 248 247 247 247 247 247 247 247 247 247 246 246 246 246 247 247 247 247 247 247 247 247 247 248 248 249 249 249 250 250 250 249 250 250 251 251 251 252 252 252 252 252 252 253 253 253 252 252 252 252 252 253 253 254 255 255 256 258 258 258 258 259 259 260 260 260
252 252 251 251 250 250 250 250 249 249 249 249 248 248 248 248 248 248 248 247 247 247 247 247 247 247 247 247 246 246 246 246 246 246 246 246 246 247 247 247 247 247 248 248 248 249 249 249 250 249 249 250 250 250 250 251 251 252 252 252 253 253 253 253 253 253 252 253 252 252 252 253 253 254 255 255 256 257 257 258 258 258 259 260 260
252 251 251 250 250 250 249 249 249 248 249 248 248 248 248 248 248 247 247 247 247 247 247 247 247 247 247 247 247 246 247 246 247 246 247 247 247 247 247 246 246 247 247 247 247 248 248 249 249 249 249 250 250 250 250 250 251 251 252 252 252 252 252 252 252 252 252 252 252 252 252 252 253 254 254 254 255 256 256 257 257 258 258 259 260
251 251 250 250 250 249 249 249 249 248 248 248 248 248 248 247 247 247 247 247 247 247 247 247 247 247 247 247 247 246 246 246 246 246 246 247 247 247 247 246 246 246 246 246 247 247 247 248 249 249 249 249 250 250 250 250 250 251 251 252 252 252 252 252 252 252 252 252 253 252 252 252 253 253 254 254 254 255 256 256 257 257 258 258 259
251 251 250 250 249 249 249 249 249 249 248 248 248 247 247 247 247 247 247 247 247 247 247 247 247 247 247 246 246 246 246 246 246 246 246 246 247 247 247 246 246 246 246 246 246 247 247 247 248 249 249 249 249 249 250 250 250 251 251 251 251 251 251 251 251 252 252 252 252 252 252 252 252 253 254 254 254 255 255 256 256 257 257 258 258
251 250 250 250 249 249 249 249 249 249 248 248 248 248 247 247 247 247 247 247 247 247 247 247 247 247 247 247 246 246 246 246 246 246 246 246 246 246 246 246 246 245 245 245 246 246 246 247 248 248 248 249 249 249 249 250 250 250 251 251 251 251 251 251 251 251 251 252 252 252 251 251 251 252 253 254 254 255 254 254 255 256 257 258 258
Wind_Speed
11 10 10 10 11 11 9 9 10 9 9 10 10 10 10 10 10 10 10 10 10 10 11 11 11 11 12 11 12 11 12 11 10 10 10 11 11 12 12 12 13 12 12 13 12 12 12 13 13 12 13 13 12 11 12 13 14 15 15 15 15 16 16 16 19 20 16 14 15 16 13 15 15 14 15 12 14 14 16 14 13 11 10 9 9
10 11 10 10 12 12 11 9 9 9 11 10 10 10 10 10 10 10 11 11 10 11 12 11 11 12 12 12 12 12 12 12 11 10 11 12 12 10 11 13 13 13 12 13 13 10 12 13 13 13 13 14 14 13 12 12 13 13 14 15 16 14 16 15 17 18 18 15 15 17 16 16 17 15 15 14 15 15 16 14 13 13 11 10 10
10 10 10 11 12 12 11 9 9 11 11 10 10 10 10 10 10 10 10 11 10 10 11 12 12 12 12 12 12 12 12 12 11 11 12 13 13 13 12 13 13 13 14 14 14 13 13 13 13 12 11 13 14 13 14 13 12 13 15 14 16 15 16 16 14 19 20 17 14 16 15 14 16 16 16 15 16 15 16 17 14 12 11 13 10
10 10 10 10 11 11 10 9 10 10 10 9 11 11 11 10 10 10 11 10 11 11 11 12 12 12 12 12 12 12 12 12 12 12 13 13 13 14 14 14 14 14 14 14 13 13 13 14 13 12 12 13 13 13 12 13 13 13 14 14 16 17 16 15 17 17 15 17 15 16 15 14 14 16 14 14 15 15 14 14 15 14 13 12 12
10 10 10 11 11 10 11 10 10 10 10 10 11 11 11 10 10 11 11 11 11 11 11 11 11 11 11 12 12 13 13 14 15 15 14 15 15 15 16 15 15 14 14 14 14 14 14 15 14 13 13 14 14 13 12 15 14 14 15 14 14 14 14 15 16 17 17 18 17 14 14 15 14 15 14 14 14 15 13 14 15 14 13 13 12
10 10 10 11 11 11 11 11 11 11 11 10 11 11 11 11 11 11 11 12 12 12 12 11 10 13 12 13 13 13 14 15 15 15 15 15 15 15 14 14 14 15 15 15 15 14 15 15 15 14 15 15 15 14 14 15 15 15 16 15 14 12 14 17 17 16 17 18 17 16 15 16 15 15 15 16 14 14 12 12 14 13 14 14 13
11 11 11 12 11 11 11 11 10 10 10 10 10 11 11 11 11 11 12 14 14 13 12 13 12 12 14 13 15 15 15 14 14 15 15 15 15 15 15 15 15 15 16 16 17 17 17 17 17 16 16 15 15 15 15 16 15 16 16 16 15 15 15 13 14 16 16 17 16 16 16 15 15 15 15 16 15 15 14 13 14 12 12 14 13
10 10 10 11 11 11 10 10 10 10 10 10 11 11 11 11 12 12 14 14 14 14 13 14 13 13 14 15 15 14 14 14 15 16 15 15 14 15 15 16 17 17 17 17 18 18 18 18 18 17 16 16 15 15 15 15 15 16 15 14 14 15 15 14 15 15 16 17 17 15 15 15 15 15 14 15 15 16 15 14 15 13 11 10 12
10 10 11 11 10 10 10 9 9 10 10 11 11 11 11 12 13 14 13 14 13 14 14 14 15 15 15 14 15 14 13 14 13 13 13 15 15 15 16 17 18 17 17 17 17 17 17 17 17 17 18 22 26 25 22 19 14 14 15 14 15 15 15 15 15 16 16 16 17 15 15 15 15 15 13 16 17 16 13 12 12 14 12 12 11
10 11 11 11 10 10 11 10 10 10 11 11 11 12 12 13 13 14 14 14 13 13 13 13 13 13 14 15 14 13 13 12 16 24 23 17 16 14 14 14 14 14 14 14 15 16 16 16 17 25 28 29 28 28 28 28 29 23 18 16 16 16 16 16 16 16 16 16 16 15 15 16 16 16 16 16 14 15 15 13 13 13 12 13 12
11 11 11 11 11 11 10 10 10 11 11 11 12 13 14 13 13 14 14 13 13 13 12 13 13 13 14 14 14 13 13 13 23 26 27 29 22 17 16 17 17 18 17 17 16 16 16 16 15 18 22 24 24 30 30 31 30 30 32 31 27 20 17 18 18 16 16 16 16 16 16 17 17 16 17 16 14 13 12 12 13 13 12 11 13
11 11 11 11 11 11 10 11 11 11 12 13 14 13 13 13 13 13 13 14 13 12 13 13 13 13 13 13 14 14 14 20 27 27 29 28 28 20 17 16 16 15 15 16 15 15 15 15 15 15 15 17 18 19 23 29 31 32 33 33 32 33 32 24 18 18 17 17 17 17 16 17 15 13 14 15 15 15 14 12 14 13 12 13 13
11 12 11 11 11 10 10 11 12 12 12 12 12 12 12 13 13 13 14 13 13 13 13 13 14 13 13 15 15 15 14 21 26 28 28 28 25 19 16 15 15 15 15 15 15 15 14 15 16 15 14 24 22 19 18 19 26 32 33 34 34 34 33 35 34 25 16 19 19 19 18 16 16 14 13 14 12 14 13 14 13 13 13 14 13
11 11 11 11 10 10 10 11 12 13 12 12 12 12 12 13 13 12 13 12 12 13 13 14 14 14 13 14 15 14 15 20 27 28 28 23 26 25 17 17 16 15 15 14 14 16 15 15 16 16 16 17 17 17 16 16 17 18 18 18 18 22 28 33 34 36 30 19 19 20 17 16 16 15 12 13 14 15 14 14 13 14 14 14 13
11 11 11 11 10 10 10 11 13 13 13 12 12 12 12 13 13 12 11 12 12 12 13 13 13 13 14 14 14 15 14 23 26 28 23 29 31 25 15 15 13 14 14 14 15 15 17 17 17 18 18 19 18 19 19 18 17 17 17 18 18 18 18 17 18 17 17 17 19 18 18 17 19 16 13 13 14 15 15 15 15 14 14 13 12
12 11 11 11 11 11 12 13 13 12 12 12 12 13 13 12 13 13 12 12 11 12 12 12 14 14 14 14 14 16 15 23 26 27 22 25 30 17 15 14 14 14 15 15 15 15 16 18 18 18 19 19 23 29 27 22 19 19 19 18 17 17 17 19 25 23 19 15 14 14 14 17 19 16 16 13 13 13 13 15 14 13 12 12 13
13 12 11 12 12 13 12 12 12 13 12 13 13 12 13 13 13 11 12 12 12 12 12 13 12 13 14 14 14 15 15 20 25 29 23 31 25 15 15 14 13 14 14 15 15 15 16 17 18 18 19 19 25 29 29 28 21 20 19 18 17 17 17 16 24 28 29 29 28 27 26 27 29 29 26 25 18 14 13 15 15 12 11 13 12
13 13 13 13 12 11 11 12 12 13 12 12 13 13 13 12 12 11 12 13 13 13 13 13 13 13 14 15 14 15 15 19 26 27 23 24 25 18 14 13 14 14 14 14 14 15 18 28 25 18 18 19 25 27 28 24 21 20 19 19 23 20 19 16 12 14 24 26 26 27 27 26 27 30 30 29 28 19 13 17 13 11 13 12 11
12 12 12 12 12 11 11 12 12 12 12 12 12 13 13 12 12 11 11 11 13 12 12 12 13 12 13 15 19 18 16 18 24 26 28 21 22 15 13 13 14 13 13 14 14 16 16 17 23 23 23 23 29 29 30 26 19 18 17 17 19 20 18 16 15 12 12 13 13 11 12 18 17 17 18 29 27 23 17 14 12 13 13 11 11
12 12 12 12 11 11 11 11 12 12 13 13 12 12 12 12 12 12 12 11 12 12 12 12 14 14 13 14 14 14 15 15 17 26 27 26 29 18 13 13 13 15 14 14 16 14 14 14 17 23 29 30 29 30 29 29 22 17 17 16 17 19 14 14 15 12 13 13 11 10 10 8 8 7 5 10 15 16 15 14 12 13 12 11 10
12 12 12 11 11 12 11 11 13 13 12 12 12 12 11 12 12 12 12 11 11 12 14 13 13 14 13 14 14 14 13 15 17 25 26 27 29 24 14 14 14 14 15 16 13 13 13 14 14 21 29 31 31 31 30 27 24 17 16 17 17 16 16 15 16 19 14 13 12 12 11 10 11 8 7 7 7 8 8 9 11 12 12 11 10
12 12 12 12 12 12 12 12 12 12 12 11 12 13 12 12 12 12 11 12 13 14 14 13 12 13 12 13 13 13 14 18 16 21 25 28 27 30 17 15 17 15 14 12 13 13 13 13 13 21 30 33 34 31 29 26 26 17 15 21 25 26 19 15 13 12 12 11 10 10 10 10 11 11 10 9 9 9 10 7 9 12 12 11 11
12 12 12 12 12 12 12 12 12 10 11 11 12 13 12 12 12 12 13 12 13 14 13 12 12 12 12 11 12 13 14 13 18 17 23 27 27 28 30 23 27 17 13 13 13 13 12 14 16 27 32 34 33 30 26 27 22 16 23 23 23 24 21 14 13 12 12 11 10 10 10 10 10 11 10 11 9 8 8 10 9 11 13 12 12
11 11 11 11 12 12 12 12 11 11 11 12 12 12 13 12 11 10 10 10 10 11 11 11 11 12 12 12 12 12 12 12 15 20 20 26 27 27 29 31 29 17 15 13 12 12 13 15 19 31 31 31 32 30 25 21 15 21 21 22 20 18 14 13 10 11 11 11 10 10 9 9 9 10 11 10 8 8 9 9 10 11 12 12 11
11 11 12 12 11 11 11 11 11 11 11 10 11 11 12 11 11 10 10 10 10 10 11 10 11 11 11 12 12 13 13 13 13 17 24 24 25 21 25 32 28 25 16 13 13 12 17 26 28 27 28 28 28 26 19 17 18 17 18 17 16 11 10 10 9 8 10 11 11 10 10 11 11 10 8 8 7 7 8 7 8 10 11 12 10
11 11 11 11 11 11 12 12 12 11 11 10 10 10 11 11 10 11 9 9 9 10 11 11 11 11 11 12 13 13 13 12 13 14 15 17 17 23 30 29 23 23 21 15 19 22 22 23 24 24 21 20 17 14 13 12 16 18 17 16 9 8 9 9 9 9 9 10 10 10 10 9 10 8 7 6 7 9 9 9 10 11 12 11 10
11 11 11 11 11 10 10 10 11 11 10 9 9 9 9 10 10 11 10 9 10 10 11 11 11 11 11 12 13 13 13 13 13 13 12 12 13 17 18 16 18 18 13 11 13 13 15 15 13 18 17 22 21 19 17 15 11 9 7 7 7 8 8 8 8 8 8 10 10 11 10 9 9 9 8 8 9 9 9 10 11 11 11 11 10
11 12 12 11 10 10 10 11 11 11 10 10 10 10 9 9 10 10 9 9 10 11 11 11 11 12 13 13 12 12 13 12 12 12 14 14 15 16 15 13 12 11 12 11 13 13 12 12 12 9 11 12 12 11 10 10 10 9 8 8 7 7 9 11 10 7 7 8 8 9 9 9 9 8 8 8 9 9 10 10 10 11 11 11 10
11 12 11 10 10 9 10 10 10 10 11 11 10 9 9 10 11 12 11 9 10 11 13 13 13 12 12 12 12 12 12 12 13 17 20 24 21 16 13 12 12 11 13 19 14 11 9 9 9 10 10 11 11 11 11 10 10 9 9 9 9 8 6 6 7 8 7 8 9 9 9 9 9 8 9 8 9 9 9 10 10 11 10 11 10
11 11 9 9 10 10 10 10 10 10 10 11 11 12 12 16 14 12 13 16 19 23 20 16 14 12 11 10 9 11 12 13 19 21 20 25 27 25 21 22 20 16 18 19 11 8 8 8 8 9 10 10 10 10 11 10 10 10 9 10 9 8 8 7 7 7 7 8 8 8 8 8 8 9 8 9 9 9 10 11 10 11 10 11 11
9 10 9 9 10 11 11 11 10 10 11 10 10 12 13 11 14 19 19 19 20 20 16 21 18 15 12 11 12 18 20 22 18 24 26 21 19 23 23 21 20 20 19 13 8 7 8 8 8 8 9 9 9 10 10 10 10 10 10 9 8 9 8 8 8 6 8 7 7 7 8 9 9 9 9 9 9 9 9 10 10 11 11 11 11
9 10 10 10 10 10 10 11 11 10 10 10 10 11 11 13 14 13 16 18 20 20 18 18 16 17 18 17 14 12 16 19 24 22 20 20 26 24 22 20 18 18 17 13 7 7 8 8 8 8 9 9 9 10 10 10 10 9 10 9 9 9 9 8 9 9 7 7 7 8 9 9 10 9 9 9 10 9 9 9 10 10 11 11 11
9 10 10 10 11 10 10 10 10 10 11 11 11 10 10 11 13 15 13 13 16 18 19 18 15 17 18 21 20 15 18 20 24 22 21 24 26 21 21 18 16 16 15 9 8 7 8 8 8 9 9 9 9 9 9 9 9 9 9 9 9 9 9 11 11 7 6 6 7 8 8 9 9 9 9 9 9 9 9 10 10 10 10 10 11
10 10 9 10 10 10 10 10 10 10 10 10 10 10 10 10 11 12 14 15 13 11 11 14 16 14 15 19 21 21 22 20 23 23 23 20 18 17 18 12 13 13 11 7 8 8 8 8 8 8 9 9 9 10 9 9 9 9 9 8 9 9 10 10 8 8 6 6 5 7 8 9 8 8 9 9 9 9 10 10 10 10 10 10 10
11 11 13 11 10 10 10 10 10 10 10 10 10 11 10 10 10 11 12 12 12 13 14 13 13 14 13 14 17 20 21 21 21 22 20 22 21 18 15 9 9 9 8 7 7 7 8 8 9 8 9 9 9 10 10 10 9 9 9 9 9 9 9 9 9 9 7 7 6 6 5 5 6 8 8 8 9 9 9 9 10 10 10 10 9
10 10 10 10 9 10 10 10 10 10 10 10 10 11 11 10 10 11 11 11 11 12 12 12 12 15 17 15 15 18 21 20 20 20 19 21 18 16 9 9 9 8 8 8 8 8 8 8 8 8 9 9 9 9 9 10 10 9 9 10 10 9 9 9 9 9 8 7 7 7 6 5 6 4 7 8 9 9 8 9 9 10 10 9 9
10 10 10 9 10 10 11 11 11 11 11 11 11 10 10 10 10 10 10 10 10 10 11 12 12 13 12 9 12 17 19 19 20 18 17 18 18 9 6 7 8 8 8 8 8 9 8 8 8 8 9 9 9 9 9 9 10 10 10 9 9 9 9 9 9 9 8 8 7 7 7 7 6 5 5 6 7 7 8 9 9 9 9 9 9
11 10 10 10 10 10 10 10 11 12 10 10 9 10 10 10 10 10 10 10 10 10 11 11 10 11 11 11 13 11 13 16 16 12 12 12 9 7 7 7 7 8 8 8 8 8 8 8 8 9 9 9 9 9 9 9 9 9 9 9 9 8 12 9 10 9 8 7 7 8 7 7 7 6 5 4 3 6 7 8 8 8 8 8 9
10 11 12 12 11 10 10 10 10 10 10 10 10 9 10 10 10 10 10 10 10 10 10 10 10 10 10 10 10 11 13 10 9 9 10 8 8 7 7 7 7 7 8 8 8 8 8 8 8 8 8 8 9 8 8 9 9 9 9 9 9 8 9 9 9 9 8 8 8 8 7 7 7 7 6 5 5 2 2 4 6 8 8 7 7
11 11 10 10 10 10 9 9 10 10 9 10 10 9 10 9 10 10 10 10 10 10 10 10 10 9 9 9 9 10 11 10 9 9 9 8 8 8 7 7 7 8 8 8 8 8 8 8 8 8 8 8 8 8 8 8 8 8 8 8 8 9 9 8 8 9 9 9 8 8 8 7 7 7 6 6 5 5 5 3 2 3 7 7 6
11 11 11 11 11 10 10 9 9 9 9 9 10 10 10 10 10 9 9 9 9 10 10 10 10 9 8 10 14 14 10 10 9 9 8 8 8 8 8 7 8 8 8 8 8 8 8 8 8 8 8 8 8 8 8 8 8 8 8 8 8 8 8 8 8 8 9 8 8 8 7 7 7 7 7 6 6 5 4 4 3 3 3 3 4
11 11 11 11 10 10 9 9 9 10 9 9 9 9 9 9 9 9 9 10 9 9 10 10 9 9 10 15 13 14 10 8 8 8 8 8 8 8 7 7 7 7 8 8 8 8 8 8 8 8 8 8 8 8 8 8 8 8 8 8 8 8 8 8 8 8 8 8 8 8 8 7 7 7 6 7 5 5 4 4 4 4 3 3 3
11 11 11 10 11 10 10 10 9 9 9 9 9 9 10 9 9 9 10 9 9 9 10 10 10 9 9 11 11 11 7 7 7 8 8 8 7 8 7 7 7 7 8 8 8 8 8 8 8 8 8 8 8 8 8 8 8 7 7 7 7 8 8 8 8 8 8 8 8 9 9 7 7 6 6 6 6 5 4 4 3 2 2 2 2
11 10 10 10 10 10 9 9 9 9 9 10 11 10 9 9 9 9 9 10 9 9 9 9 9 9 9 8 8 7 6 7 7 7 8 8 7 7 7 7 7 8 8 8 7 8 8 8 8 8 8 8 8 8 8 7 7 7 7 7 7 7 7 8 8 8 8 8 8 8 8 8 7 6 5 5 5 5 4 4 3 2 1 0 1
10 10 10 10 10 10 10 9 9 9 9 9 9 9 8 8 9 9 9 9 9 9 9 9 9 8 8 8 7 7 7 7 7 7 7 7 7 7 7 7 8 8 8 8 7 8 8 8 8 8 8 8 8 8 8 7 7 6 7 7 7 7 7 8 7 7 7 7 7 7 7 7 7 6 5 5 4 4 3 3 3 3 1 0 1
10 10 10 10 10 10 10 9 9 9 9 9 9 9 9 9 9 9 8 9 9 9 9 9 8 8 8 8 8 7 7 7 7 7 7 7 7 7 7 7 7 8 7 7 8 8 7 8 7 8 8 8 8 8 8 7 7 7 7 6 7 7 7 7 7 8 7 7 7 7 7 7 6 6 6 5 4 3 3 3 2 2 1 1 1
10 10 10 10 10 10 10 9 9 9 9 9 9 9 9 9 9 9 9 9 9 9 9 9 9 8 8 8 8 8 7 7 7 7 7 7 7 7 7 7 8 7 7 7 7 7 7 7 7 8 8 8 8 8 8 7 7 7 7 7 6 7 7 7 8 7 7 7 7 6 6 6 6 6 6 5 4 3 3 2 2 1 1 1 1
10 10 10 9 10 10 10 9 10 9 9 8 8 9 9 9 9 9 9 9 9 8 9 8 8 8 8 8 7 7 7 7 7 7 7 7 7 7 7 7 7 7 8 7 7 7 7 7 7 8 8 8 8 8 7 7 7 7 7 7 6 8 10 10 7 7 7 7 7 7 7 6 6 5 5 5 4 4 3 2 2 1 1 1 1
10 10 10 10 10 10 9 10 9 9 9 9 9 9 8 8 9 9 9 9 9 9 8 8 8 8 8 8 8 8 7 7 7 7 7 7 7 7 7 7 7 7 7 7 7 7 7 7 7 7 7 7 7 7 7 7 7 7 7 7 9 15 13 13 9 7 10 7 6 6 6 6 6 6 5 5 4 4 3 3 2 2 1 1 2
10 10 10 10 10 10 9 9 10 9 9 9 9 9 9 9 9 8 9 9 9 9 8 8 8 8 8 8 8 8 7 7 7 7 7 7 7 7 7 7 7 7 7 7 7 7 7 7 7 7 7 7 7 7 7 7 7 7 8 9 14 14 13 13 11 11 9 7 7 6 6 6 6 5 5 4 4 4 4 3 3 2 2 2 2
10 10 9 9 9 10 9 9 9 9 9 9 9 9 9 9 9 9 9 9 9 9 9 8 8 8 8 8 7 7 8 7 7 7 7 7 7 6 6 6 7 7 7 7 7 6 7 7 7 7 7 7 7 7 7 7 7 8 12 15 14 13 14 13 9 10 12 9 7 6 5 6 6 5 5 4 4 3 4 4 4 3 2 2 2
Wind_Direction
331 326 320 315 313 302 301 310 315 315 315 311 307 306 309 308 308 308 308 304 303 302 300 299 298 298 297 295 293 293 294 293 293 292 290 289 289 288 288 287 284 284 285 285 283 282 282 282 283 283 285 282 278 277 273 270 264 258 257 256 254 253 251 253 258 262 263 256 262 269 265 265 263 256 258 254 250 247 245 245 244 239 233 234 234
329 324 319 315 314 307 301 306 311 314 315 310 307 306 308 308 308 308 304 303 304 300 298 298 296 296 295 293 292 290 289 289 290 289 288 288 287 286 285 285 284 282 283 282 283 283 285 285 283 282 279 277 277 276 274 271 269 267 259 255 254 254 252 253 257 261 263 258 258 264 264 261 265 259 256 252 247 245 245 240 242 242 242 238 239
325 320 316 314 312 308 300 299 305 310 309 308 306 307 308 309 308 305 302 303 301 298 297 297 295 294 293 292 290 289 289 289 289 288 287 287 285 284 283 284 283 284 284 282 284 285 283 279 279 281 282 278 276 275 275 276 273 266 263 263 260 257 255 254 258 259 262 263 256 258 260 258 257 261 254 251 250 244 243 240 239 243 245 246 239
321 316 311 309 307 303 297 296 300 301 305 306 308 309 310 308 306 302 299 297 297 296 295 295 295 293 292 292 292 291 292 291 289 287 286 284 283 283 285 283 283 282 280 279 280 280 278 278 276 275 274 274 275 274 272 269 267 268 268 261 257 258 260 256 252 257 262 263 254 253 258 260 257 256 254 250 247 241 240 243 243 247 247 242 239
317 313 310 309 308 305 301 300 299 300 304 307 309 309 308 306 303 301 300 298 297 299 297 296 295 294 292 293 293 293 293 294 294 290 287 287 285 284 283 280 277 277 277 277 277 275 273 271 271 270 267 268 268 267 268 267 264 263 261 264 263 259 256 253 254 254 257 257 258 256 257 257 257 257 249 244 243 240 237 241 245 243 237 241 246
314 310 308 309 308 307 306 307 307 307 306 307 308 307 306 303 302 301 301 302 302 299 297 297 295 295 293 292 291 291 294 294 288 283 282 284 282 279 278 277 277 275 274 272 270 267 267 267 265 265 264 264 266 266 266 267 266 263 263 261 262 265 259 251 249 250 251 254 257 258 252 253 253 249 243 240 241 239 230 233 238 241 243 244 245
313 311 309 308 306 306 307 306 305 304 305 306 306 304 302 302 302 301 306 309 307 301 299 298 297 296 297 296 296 295 292 287 284 283 282 281 280 279 277 276 274 273 270 268 266 265 265 263 262 260 256 254 256 258 258 260 261 260 259 259 262 265 266 271 261 249 250 253 255 255 255 251 249 249 243 237 237 234 235 240 244 236 237 242 242
304 300 300 299 298 300 303 303 301 300 302 303 303 303 302 303 304 306 309 305 304 305 301 302 299 300 298 297 294 290 288 286 284 283 281 279 279 276 274 271 269 266 264 263 264 263 260 260 259 254 251 249 248 251 250 254 256 258 256 255 254 257 260 258 257 256 256 254 253 253 250 251 245 243 243 238 230 234 233 239 250 248 241 238 237
299 299 299 298 299 302 303 302 299 300 303 304 304 304 305 305 309 309 306 303 301 300 299 299 297 295 293 290 291 289 287 283 281 279 280 277 272 268 264 260 259 260 259 259 257 255 254 253 250 247 245 247 250 250 250 247 247 254 255 252 252 252 252 253 253 252 251 250 251 248 249 246 242 239 232 228 226 231 233 226 244 248 246 249 252
301 301 299 299 302 303 302 301 301 303 305 306 305 305 306 309 307 305 306 303 298 297 296 292 288 289 290 290 288 287 284 280 276 276 277 277 272 266 263 259 257 256 255 257 260 259 250 247 246 248 250 251 254 258 262 263 260 260 263 260 255 254 252 250 247 246 248 251 249 246 245 245 241 235 233 229 230 232 234 233 238 246 243 251 255
298 297 297 299 300 301 301 301 303 304 306 305 306 307 307 306 303 301 300 299 297 295 293 292 292 290 289 289 288 286 283 281 281 284 286 286 285 283 282 282 280 280 279 277 277 278 277 276 277 275 275 273 271 270 269 267 265 263 262 260 259 254 247 244 243 240 245 246 247 247 245 246 241 235 234 232 230 225 231 232 236 240 241 242 248
297 296 296 298 298 300 301 302 303 302 305 305 305 302 302 301 299 299 298 298 297 294 292 288 288 289 288 287 286 285 284 284 287 289 290 289 290 288 285 282 281 279 278 276 276 276 278 278 273 270 265 263 262 262 263 263 263 263 261 261 261 261 258 251 243 239 232 240 244 242 243 244 241 233 234 231 233 232 233 234 234 233 238 239 243
297 295 296 297 297 300 302 303 302 303 303 301 301 301 300 299 297 298 297 297 295 291 288 290 288 288 286 285 284 285 284 286 288 290 291 290 290 291 291 287 285 282 278 276 275 275 275 273 272 266 264 265 263 259 257 257 259 261 261 259 257 257 259 260 256 245 231 239 238 239 237 240 238 234 229 229 229 232 230 233 231 234 236 239 241
296 294 294 294 297 299 303 303 303 300 300 300 300 298 297 295 295 294 294 293 290 289 290 288 287 285 285 284 284 283 283 286 290 291 292 293 296 295 295 291 285 279 277 274 270 268 267 270 273 272 268 265 262 259 253 254 256 257 257 256 254 252 255 257 260 258 249 237 235 236 231 230 237 236 227 225 230 233 231 231 234 235 233 237 243
296 296 296 297 300 301 302 304 305 302 301 301 301 298 296 296 295 294 295 293 292 290 291 292 288 285 285 285 285 285 284 288 293 295 295 297 298 302 299 293 287 280 275 270 266 264 268 271 270 270 270 267 263 258 257 254 254 255 253 252 251 254 252 251 251 251 250 247 242 238 235 229 231 230 223 219 219 227 227 230 230 231 236 243 246
297 298 300 301 301 303 306 307 304 300 300 300 298 297 298 297 297 297 294 292 290 288 288 285 286 286 286 286 286 286 285 290 296 298 297 300 303 307 302 295 289 283 281 277 272 270 271 273 272 269 266 265 262 264 263 259 254 252 252 253 252 253 253 251 250 247 244 241 239 239 239 234 229 226 228 220 220 219 227 235 236 234 237 238 242
303 299 299 302 305 305 302 300 298 298 299 299 297 297 298 299 297 296 293 291 291 290 287 288 287 288 288 287 286 285 288 293 297 300 300 301 305 302 298 294 290 287 284 284 281 278 277 276 275 276 273 269 266 265 264 261 256 256 255 255 256 256 257 255 253 253 250 244 241 237 234 235 233 224 217 220 221 211 216 227 227 225 227 236 238
303 303 303 302 300 298 297 296 293 295 297 296 297 297 296 294 293 294 291 293 291 289 290 289 288 287 288 287 285 286 289 292 296 300 300 297 303 304 301 296 293 293 291 286 285 282 281 283 288 279 274 273 265 265 265 261 257 255 254 254 257 257 258 256 247 246 254 257 255 248 238 229 228 230 230 226 222 209 203 219 221 217 226 225 235
299 298 297 297 297 294 293 292 292 293 295 294 295 294 293 292 292 292 288 288 287 289 289 289 289 289 286 286 286 285 283 286 292 298 301 300 303 302 303 300 298 297 295 292 288 288 290 291 295 293 291 287 273 264 259 253 249 248 249 252 254 254 254 255 248 232 237 245 254 260 255 242 231 224 225 225 224 217 211 213 209 211 217 222 226
298 296 295 295 294 293 293 294 294 294 295 295 294 291 290 290 290 291 291 289 289 288 288 289 290 288 287 285 283 281 282 282 286 296 302 305 308 310 309 305 302 300 297 293 295 297 301 298 298 299 299 299 290 282 275 260 250 245 246 249 250 253 254 252 240 231 234 234 237 233 230 228 229 218 210 220 225 223 212 204 206 209 213 217 218
298 295 294 293 292 294 297 295 295 294 292 293 295 292 290 289 291 291 291 290 287 289 288 287 287 285 286 286 286 285 281 285 289 297 302 306 309 312 310 305 302 298 294 297 305 306 301 297 299 300 300 301 300 288 278 274 263 253 243 241 245 249 250 253 244 229 229 232 232 235 235 227 226 222 215 210 210 217 220 206 202 208 209 212 216
297 294 291 291 293 295 294 292 291 291 291 292 291 290 289 288 287 288 289 291 290 287 288 288 289 288 289 289 286 289 296 294 292 293 300 304 307 311 311 305 302 299 302 308 308 302 298 301 302 302 304 306 307 301 281 272 265 261 256 253 249 246 245 243 238 230 226 225 227 226 222 220 221 220 219 217 212 214 215 214 201 209 216 217 218
295 293 290 289 289 289 289 288 290 291 289 289 288 286 288 287 285 285 283 285 284 286 286 286 288 291 294 294 296 301 301 298 295 297 300 305 307 309 311 314 314 315 315 312 305 301 305 305 304 304 308 312 312 314 304 275 267 264 262 258 256 253 248 242 238 233 233 221 219 214 211 212 213 216 213 219 213 202 212 218 216 208 211 219 224
294 290 288 286 286 287 287 287 286 287 289 291 290 285 287 287 287 286 285 284 289 291 292 294 294 294 296 300 304 304 304 303 302 302 302 306 307 308 312 317 317 320 317 308 307 309 311 310 310 313 316 316 315 315 318 307 275 265 265 263 259 256 247 247 233 224 218 215 214 213 213 214 214 219 220 218 212 202 204 210 220 220 211 217 215
291 287 287 286 284 283 283 284 286 285 282 286 288 291 289 291 291 292 290 288 287 288 291 294 294 296 297 301 305 307 306 306 305 304 306 307 309 309 314 317 317 317 315 312 310 311 311 316 319 320 318 318 318 314 308 302 299 290 279 276 269 253 246 242 242 209 203 200 205 212 216 220 224 223 212 206 201 195 206 210 220 231 221 213 207
290 285 285 286 282 282 284 287 284 281 279 280 280 282 286 289 290 292 291 288 288 288 291 295 296 296 299 304 306 305 306 307 306 306 308 310 310 311 312 311 313 315 314 311 316 316 317 320 320 322 323 324 324 313 300 296 293 293 287 281 273 261 248 243 238 212 199 202 202 207 216 219 218 208 195 183 196 212 217 221 221 221 221 206 202
288 287 287 289 290 284 284 294 300 298 291 287 285 285 285 285 286 287 287 290 293 292 292 295 296 299 301 306 305 306 308 308 307 306 310 314 315 311 307 310 317 318 319 323 323 320 316 316 319 324 326 330 334 330 331 308 287 283 282 274 265 260 251 244 240 215 205 204 209 213 216 218 214 210 203 203 206 212 214 222 222 222 214 209 198
290 291 291 290 288 287 285 285 288 294 296 294 293 293 287 284 284 283 285 288 293 292 293 293 298 301 304 305 307 308 307 307 306 308 309 313 311 311 311 318 324 328 325 327 324 318 314 314 321 330 334 340 340 341 337 337 340 343 333 313 286 263 258 254 251 233 215 218 213 219 218 212 200 195 197 200 207 209 211 216 220 218 213 202 195
288 286 287 286 282 284 284 287 287 292 294 292 285 280 284 289 284 283 273 265 269 283 291 291 293 298 299 303 307 305 305 304 304 303 306 308 314 319 322 327 329 329 332 333 325 317 318 323 331 336 343 338 340 337 339 344 347 345 340 339 331 314 272 236 236 236 225 214 214 211 213 198 196 192 199 203 208 210 205 212 213 214 208 201 197
291 287 286 285 289 292 296 296 293 291 292 295 296 292 274 269 272 274 284 287 289 287 285 286 289 299 303 304 305 302 304 302 304 310 311 316 324 330 333 334 335 335 341 341 328 321 328 330 336 340 337 339 335 337 337 343 344 345 347 344 337 329 323 298 248 232 228 222 216 216 207 196 198 199 201 208 209 210 206 204 207 208 208 196 194
288 287 288 291 296 301 298 296 295 294 293 291 294 296 300 294 282 285 287 291 293 291 291 298 307 319 320 314 309 311 309 310 313 315 318 321 329 337 337 336 337 341 354 347 336 336 337 335 339 339 338 334 334 334 336 336 340 340 342 342 341 338 330 322 318 277 232 226 223 215 212 209 205 200 203 206 209 203 204 202 206 206 206 199 197
287 289 291 293 295 294 293 291 290 290 292 292 292 296 298 302 303 295 292 292 296 303 307 310 314 324 324 319 320 319 316 318 321 316 318 327 339 339 336 335 339 346 357 352 342 342 340 339 337 340 337 334 334 333 335 336 335 338 336 337 339 338 338 332 325 316 291 239 229 225 222 219 216 208 206 207 204 204 196 194 199 205 205 202 202
278 281 285 285 290 291 292 291 292 294 295 298 297 297 297 300 303 309 309 296 298 301 303 308 318 324 326 325 323 321 323 326 323 326 329 337 335 339 339 339 340 349 357 356 351 337 341 337 336 336 336 333 333 334 333 334 335 334 334 334 330 329 331 329 325 314 306 282 243 234 227 222 219 216 212 208 204 203 196 192 197 205 205 201 199
270 281 287 289 290 290 290 290 291 292 294 293 292 292 293 293 296 300 307 315 315 306 290 301 311 320 320 319 320 325 326 327 329 327 327 334 331 349 345 341 340 351 360 349 343 338 338 335 335 335 332 333 333 334 333 335 335 332 331 332 330 328 334 337 342 342 338 334 303 259 235 221 213 214 214 212 204 202 199 196 197 200 202 199 192
284 280 268 270 282 286 287 289 289 291 292 293 294 294 293 293 295 297 302 304 306 309 313 314 315 319 320 315 316 320 324 324 322 320 330 335 341 353 350 347 346 347 352 349 342 338 338 336 335 333 333 333 333 332 331 332 334 335 334 332 334 334 342 346 348 345 345 344 342 342 335 301 233 214 218 209 202 201 194 195 195 198 199 195 189
288 285 288 280 277 282 287 288 291 292 291 292 292 291 290 292 295 296 296 293 295 300 302 305 308 314 317 314 313 320 322 324 318 322 334 339 344 360 352 347 340 341 338 339 339 334 333 332 333 331 332 331 331 331 332 331 334 332 332 334 336 339 343 346 348 347 342 346 350 347 346 347 337 284 225 211 204 196 192 191 194 194 194 188 179
293 292 292 293 291 293 290 287 284 283 285 288 289 287 289 290 292 293 293 293 295 295 299 304 311 312 318 319 323 321 320 320 321 326 336 342 344 349 342 338 335 331 332 333 334 332 331 331 332 331 331 331 331 332 331 332 333 330 333 335 336 340 345 343 345 342 341 344 348 348 352 356 343 332 312 230 195 192 189 192 192 187 188 173 168
272 277 284 286 290 287 288 290 290 287 286 290 289 289 289 291 291 291 291 293 293 296 299 302 306 307 315 319 328 324 320 320 320 323 335 340 344 342 337 331 331 329 327 328 329 326 325 326 330 331 330 330 330 332 332 335 335 335 336 335 339 339 343 344 345 345 344 346 346 349 349 351 356 346 338 318 192 176 186 187 182 177 175 165 173
295 280 272 272 275 284 288 289 291 291 292 291 294 292 290 291 293 293 293 293 294 295 296 300 302 306 309 317 321 321 323 325 330 327 332 331 329 332 327 326 325 326 325 324 324 324 323 323 326 327 327 329 331 331 332 332 335 336 337 337 340 343 347 349 347 348 349 347 346 348 349 347 347 349 355 1 6 356 158 171 173 165 159 160 171
297 301 297 291 296 289 289 289 288 289 289 293 294 296 294 293 294 295 294 292 293 296 298 299 300 301 307 312 314 324 323 320 319 320 319 319 321 323 324 321 323 324 323 323 322 322 321 321 324 322 325 327 330 332 332 332 333 334 335 341 342 345 347 347 346 347 347 344 343 346 347 344 346 344 356 10 8 6 1 9 16 151 167 168 161
301 299 297 295 289 290 289 288 289 289 293 293 294 295 293 292 293 293 291 291 292 295 296 297 296 298 299 302 310 317 316 312 312 311 311 311 311 312 316 319 319 318 319 319 320 319 320 320 319 320 322 326 328 329 331 331 331 333 338 338 340 341 343 346 347 346 342 341 343 344 343 342 346 350 355 356 356 7 14 11 25 27 50 85 117
299 300 300 301 300 296 295 293 293 291 288 287 288 290 293 295 294 292 293 292 293 293 296 295 296 295 296 302 308 315 314 303 302 303 304 304 304 305 308 310 312 313 316 316 317 317 318 319 318 319 321 325 326 326 329 329 331 332 334 336 338 338 338 343 344 343 341 341 340 340 339 338 343 345 350 352 354 0 14 20 15 21 38 61 83
290 294 296 297 296 297 294 293 293 295 294 294 294 294 291 291 291 293 291 291 290 292 292 294 296 298 297 300 302 304 299 298 299 299 300 302 302 303 304 305 308 311 312 312 311 313 316 316 317 316 321 323 322 325 326 326 329 328 329 332 332 334 336 338 340 341 341 339 338 335 332 335 341 345 351 354 351 358 13 16 21 32 35 41 88
294 294 294 293 293 294 293 293 294 292 294 291 289 286 285 285 288 288 290 290 291 290 291 292 295 298 300 303 303 301 303 301 300 300 300 300 300 301 304 304 307 309 311 311 312 314 314 315 315 317 318 318 322 324 321 322 326 325 328 330 330 331 335 338 339 339 337 333 332 333 334 333 335 338 346 353 353 354 3 14 15 20 32 133 143
296 297 298 298 297 296 294 294 292 292 292 292 293 294 290 286 286 287 287 290 291 292 291 292 293 295 298 301 302 300 299 298 297 295 296 298 298 301 304 306 305 307 308 310 312 313 311 314 316 318 319 320 323 324 324 325 323 325 327 326 327 330 332 334 335 332 327 326 327 328 329 332 331 338 343 344 347 348 356 7 5 12 356 308 205
297 296 296 296 296 294 294 294 292 291 291 292 293 294 295 294 291 290 289 289 290 292 295 295 295 294 294 296 298 296 296 295 293 293 294 296 298 302 304 305 306 304 303 307 310 309 310 311 315 317 319 320 322 323 324 323 324 324 323 320 324 325 324 327 331 328 324 325 326 324 324 324 325 330 336 331 336 348 352 355 345 340 335 281 245
296 294 295 294 294 294 293 291 292 291 292 291 289 289 292 294 293 291 288 285 286 287 289 291 294 294 294 293 293 295 293 292 292 294 291 291 291 293 298 306 306 304 303 305 308 307 307 310 312 316 316 318 318 320 322 325 325 325 322 325 328 330 331 333 330 327 323 322 322 318 318 316 320 323 330 335 334 343 344 349 7 354 311 281 239
296 297 294 294 293 294 294 295 292 290 288 289 288 288 288 288 291 290 292 292 289 288 289 288 288 290 292 292 292 291 291 290 290 288 290 289 291 292 297 298 302 306 306 304 304 305 309 308 309 313 314 316 318 321 321 322 324 323 324 329 337 335 335 338 330 329 328 322 315 316 312 312 316 321 325 328 335 338 334 1 334 324 298 249 236
296 296 297 296 295 293 296 296 295 294 293 291 290 287 286 286 286 288 288 287 289 287 287 288 290 291 291 291 291 291 289 287 285 286 288 289 289 290 291 293 298 300 302 304 302 304 306 305 307 309 312 315 317 318 318 318 322 322 327 335 337 337 338 339 333 331 329 323 320 317 314 310 313 313 318 324 328 328 329 330 326 315 284 259 242
297 296 295 295 294 294 293 292 291 292 290 287 286 286 286 283 284 285 286 287 288 289 288 288 287 288 290 292 291 290 292 291 291 290 289 288 287 288 290 292 291 294 299 301 301 302 303 304 302 304 311 313 314 315 315 315 317 322 331 334 334 335 337 335 329 331 333 330 323 316 314 310 311 311 318 322 326 328 335 340 334 317 296 269 236
298 295 294 291 291 291 291 291 293 292 291 289 289 289 287 287 288 289 288 287 289 289 289 288 289 288 287 286 288 289 290 288 288 285 286 286 287 288 290 289 291 293 296 294 296 298 300 300 301 305 309 310 313 312 312 313 314 323 328 329 330 335 337 339 334 330 329 331 322 317 314 315 311 314 319 327 326 335 338 328 318 312 296 275 254